McComb, MS

3:23 PM CDT on April 24, 2017 (GMT -0500)
McComb-Pike County-Lewis

Weather History for KMCB - December, 2012

Change the Weather History Date:

Tuesday, December 18, 2012

  Actual Average Record
Temperature  
Mean Temperature 52 °F -  
Max Temperature 66 °F 60 °F 75 °F (2008)
Min Temperature 37 °F 34 °F 14 °F (1979)
Degree Days  
Heating Degree Days 14    
Growing Degree Days 2 (Base 50)    
Moisture  
Dew Point 43 °F    
Average Humidity 75    
Maximum Humidity 97    
Minimum Humidity 40    
Precipitation  
Precipitation 0.00 in - - ()
Sea Level Pressure  
Sea Level Pressure 29.97 in    
Wind  
Wind Speed 2 mph (SSE)    
Max Wind Speed 8 mph    
Max Gust Speed -    
Visibility 10 miles    
Events      
Averages and records for this station are not official NWS values.
T = Trace of Precipitation, MM = Missing Value Source: NWS Daily Summary

Daily Weather History Graph

Daily Weather History Graph

Search for Another Location

Airport or City:

Trip Planner

Search our weather history database for the weather conditions in past years. The results will help you decide how hot, cold, wet, or windy it might be!

Date:

Astronomy

Dec. 18, 2012 Rise Set
Actual Time 6:55 AM CST 5:02 PM CST
Civil Twilight 6:28 AM CST 5:29 PM CST
Nautical Twilight 5:58 AM CST 5:59 PM CST
Astronomical Twilight 5:28 AM CST 6:29 PM CST
Moon 10:55 AM CST (12/18) 11:05 PM CST (12/18)
Length of Visible Light 11h 01m
Length of Day
10h 07m
Waxing Crescent, 35% of the Moon is Illuminated
Dec 18
Waxing Crescent
Dec 19
First Quarter
Dec 28
Full
Jan 4
Last Quarter
Jan 11
New

Hourly Weather History & Observations

Time (CST) Temp. Dew Point Humidity Pressure Visibility Wind Dir Wind Speed Gust Speed Precip Events Conditions
12:53 AM 45.0 °F 41.0 °F 86% 29.92 in 10.0 mi Calm Calm - N/A   Clear
1:53 AM 45.0 °F 41.0 °F 86% 29.92 in 10.0 mi Calm Calm - N/A   Clear
2:53 AM 41.0 °F 39.0 °F 93% 29.93 in 10.0 mi Calm Calm - N/A   Clear
3:53 AM 39.9 °F 39.0 °F 97% 29.93 in 10.0 mi Calm Calm - N/A   Clear
4:53 AM 39.0 °F 37.9 °F 96% 29.94 in 10.0 mi Calm Calm - N/A   Clear
5:53 AM 39.0 °F 37.0 °F 93% 29.95 in 10.0 mi Calm Calm - N/A   Clear
6:53 AM 37.9 °F 36.0 °F 93% 29.98 in 10.0 mi Calm Calm - N/A   Clear
7:53 AM 39.0 °F 37.9 °F 96% 30.01 in 10.0 mi Calm Calm - N/A   Clear
8:53 AM 50.0 °F 45.0 °F 83% 30.02 in 10.0 mi SE 4.6 mph - N/A   Clear
9:53 AM 57.0 °F 45.0 °F 64% 30.02 in 10.0 mi Variable 5.8 mph - N/A   Clear
10:53 AM 61.0 °F 44.1 °F 54% 30.01 in 10.0 mi South 6.9 mph - N/A   Clear
11:53 AM 63.0 °F 44.1 °F 50% 30.00 in 10.0 mi SSW 6.9 mph - N/A   Clear
12:53 PM 66.0 °F 42.1 °F 42% 29.97 in 10.0 mi Variable 6.9 mph - N/A   Clear
1:53 PM 66.9 °F 43.0 °F 42% 29.96 in 10.0 mi SSE 5.8 mph - N/A   Clear
2:53 PM 66.9 °F 42.1 °F 40% 29.96 in 10.0 mi South 8.1 mph - N/A   Clear
3:53 PM 66.0 °F 44.1 °F 45% 29.95 in 10.0 mi South 6.9 mph - N/A   Clear
4:53 PM 61.0 °F 45.0 °F 56% 29.96 in 10.0 mi South 4.6 mph - N/A   Clear
5:53 PM 55.9 °F 46.9 °F 72% 29.96 in 10.0 mi SSE 4.6 mph - N/A   Clear
6:53 PM 53.1 °F 46.0 °F 77% 29.97 in 10.0 mi SSE 4.6 mph - N/A   Clear
7:53 PM 52.0 °F 46.0 °F 80% 29.99 in 10.0 mi SSE 3.5 mph - N/A   Clear
8:53 PM 52.0 °F 46.9 °F 83% 29.99 in 10.0 mi SSE 4.6 mph - N/A   Clear
9:53 PM 50.0 °F 46.9 °F 89% 29.99 in 10.0 mi SSE 4.6 mph - N/A   Clear
10:53 PM 48.0 °F 46.0 °F 93% 29.99 in 10.0 mi SSE 4.6 mph - N/A   Clear
11:53 PM 48.0 °F 46.0 °F 93% 29.99 in 9.0 mi South 4.6 mph - N/A   Clear